Weather History for Tulsa, OK

Change the Weather History Date:

Sunday, August 17, 2014

  Actual Average Record
Temperature  
Mean Temperature 85 °F 82 °F  
Max Temperature 98 °F 94 °F 109 °F (1909)
Min Temperature 72 °F 72 °F 53 °F (1920)
Cooling Degree Days 20 18  
Month to date cooling degree days 261 310  
Year to date cooling degree days 1353 1478  
Since 1 June cooling degree days 1082 1244  
Growing Degree Days 35 (Base 50)    
Moisture  
Dew Point 70 °F    
Average Humidity 62    
Maximum Humidity 82    
Minimum Humidity 42    
Precipitation  
Precipitation 0.00 in 0.09 in 2.04 in (1938)
Month to date precipitation 0.79 1.51  
Year to date precipitation 18.33 26.09  
Sea Level Pressure  
Sea Level Pressure 29.86 in    
Wind  
Wind Speed 5 mph (SW)    
Max Wind Speed 13 mph    
Max Gust Speed 17 mph    
Visibility 10 miles    
Events      
T = Trace of Precipitation, MM = Missing Value Source: NWS Daily Summary

Daily Weather History Graph

Daily Weather History Graph

Search for Another Location

Airport:

Trip Planner

Search our weather history database for the weather conditions in past years. The results will help you decide how hot, cold, wet, or windy it might be!

Date:

Astronomy

Aug. 17, 2014 Rise Set
Actual Time 6:43 AM CDT 8:11 PM CDT
Civil Twilight 6:16 AM CDT 8:38 PM CDT
Nautical Twilight 5:43 AM CDT 9:10 PM CDT
Astronomical Twilight 5:09 AM CDT 9:44 PM CDT
Moon 12:10 AM CDT (8/17) 2:15 PM CDT (8/17)
Length of Visible Light 14h 22m
Length of Day
13h 27m
Waning Gibbous, 48% of the Moon is Illuminated
Aug 17
Waning Gibbous
Aug 25
New
Sep 2
First Quarter
Sep 8
Full
Sep 15
Last Quarter

Hourly Weather History & Observations

Time (CDT) Temp. Heat Index Dew Point Humidity Pressure Visibility Wind Dir Wind Speed Gust Speed Precip Events Conditions
12:53 AM 81.0 °F 84.1 °F 69.1 °F 67% 29.85 in 10.0 mi South 3.5 mph - N/A   Scattered Clouds
1:53 AM 80.6 °F 83.9 °F 69.8 °F 70% 29.88 in 10.0 mi SSW 3.5 mph - N/A   Mostly Cloudy
2:53 AM 75.9 °F - 70.0 °F 82% 29.85 in 10.0 mi Calm Calm - N/A   Scattered Clouds
3:53 AM 75.9 °F - 70.0 °F 82% 29.86 in 10.0 mi Calm Calm - N/A   Partly Cloudy
4:53 AM 75.0 °F - 70.0 °F 84% 29.86 in 10.0 mi Calm Calm - N/A   Clear
5:53 AM 75.0 °F - 69.1 °F 82% 29.87 in 10.0 mi South 4.6 mph - N/A   Clear
6:53 AM 75.9 °F - 70.0 °F 82% 29.88 in 10.0 mi South 6.9 mph - N/A   Mostly Cloudy
7:53 AM 77.0 °F - 70.0 °F 79% 29.88 in 10.0 mi South 4.6 mph - N/A   Mostly Cloudy
8:53 AM 82.0 °F 85.9 °F 70.0 °F 67% 29.89 in 10.0 mi West 5.8 mph - N/A   Scattered Clouds
9:53 AM 84.9 °F 90.1 °F 71.1 °F 63% 29.91 in 10.0 mi West 5.8 mph - N/A   Partly Cloudy
10:53 AM 88.0 °F 93.8 °F 71.1 °F 57% 29.92 in 10.0 mi Variable 6.9 mph - N/A   Partly Cloudy
11:53 AM 91.0 °F 96.6 °F 70.0 °F 50% 29.91 in 10.0 mi NW 5.8 mph - N/A   Partly Cloudy
12:53 PM 91.0 °F 97.6 °F 71.1 °F 52% 29.89 in 10.0 mi Calm Calm - N/A   Partly Cloudy
1:53 PM 93.9 °F 100.3 °F 70.0 °F 46% 29.88 in 10.0 mi NNE 4.6 mph - N/A   Scattered Clouds
2:53 PM 95.0 °F 101.3 °F 70.0 °F 44% 29.87 in 10.0 mi NW 5.8 mph - N/A   Scattered Clouds
3:53 PM 96.1 °F 101.6 °F 69.1 °F 41% 29.85 in 10.0 mi Calm Calm - N/A   Scattered Clouds
4:53 PM 96.8 °F 105.1 °F 71.6 °F 44% 29.86 in 10.0 mi Variable 3.5 mph - N/A   Scattered Clouds
5:53 PM 96.1 °F 103.5 °F 71.1 °F 44% 29.81 in 10.0 mi NNW 10.4 mph - N/A   Partly Cloudy
6:53 PM 93.0 °F 100.7 °F 72.0 °F 50% 29.80 in 10.0 mi North 9.2 mph - N/A   Partly Cloudy
7:53 PM 90.0 °F 95.4 °F 70.0 °F 52% 29.81 in 10.0 mi NE 5.8 mph - N/A   Partly Cloudy
8:53 PM 84.0 °F 89.6 °F 72.0 °F 67% 29.82 in 10.0 mi ESE 6.9 mph - N/A   Partly Cloudy
9:53 PM 86.0 °F 91.5 °F 71.1 °F 61% 29.84 in 10.0 mi SSE 6.9 mph - N/A   Partly Cloudy
10:53 PM 84.9 °F 89.4 °F 70.0 °F 61% 29.86 in 10.0 mi South 9.2 mph - N/A   Partly Cloudy
11:53 PM 82.9 °F 87.5 °F 71.1 °F 67% 29.87 in 10.0 mi SSW 10.4 mph - N/A   Partly Cloudy